Powrót do katalogu

STARLINK-37176

AktywnyŁącznośćSSO
NORAD 68615·PAYLOAD·🇺🇸 United States

Wystrzelony Apr 5, 2026 z Vandenberg Space Force Base

Loading…

Następne Przeloty (najbliższe 24 godziny)

TLE

ŚwieżeSource: CelesTrak SupGP

Epoka: Sep 14, 2026, 16:10 UTC

1 68615C 26073P   26257.67409722 -.00073384  00000+0 -22791-2 0  2579
2 68615  97.2850  95.8256 0001617  88.3331 184.8582 15.33461395    12

Śledź STARLINK-37176 w czasie rzeczywistym z AllMySat

Download on the App Store